UAL1985 KEWR-TXKF

Flight info

Callsign UAL1985
Flight time 1h 45m
Altitude 39000
Route ELVAE DCT NECCK DCT DIXIE Y481 KINGG/M078F390 DCT KINER L461 BOVIC MOMOM1
Aircraft B38M/M-SDE1FGHILORVWXY/HB1

Departure

Time 2026-05-03 21:21
Airport Newark Liberty International Airport (KEWR)

Arrival

Time 2026-05-03 23:06
Airport L.F. Wade International Airport (TXKF)
Time Latitude Longitude Altitude Speed Heading
2026-05-03 20:46 40.68434 -74.18283 28 ft 0 kts 185°
2026-05-03 21:07 40.68457 -74.18280 28 ft 4 kts 185°
2026-05-03 21:07 40.68479 -74.18278 27 ft 3 kts 184°
2026-05-03 21:07 40.68499 -74.18283 25 ft 4 kts 118°
2026-05-03 21:08 40.68503 -74.18314 29 ft 4 kts 95°
2026-05-03 21:08 40.68504 -74.18327 25 ft 0 kts 95°
2026-05-03 21:14 40.68503 -74.18314 27 ft 3 kts 95°
2026-05-03 21:14 40.68501 -74.18278 25 ft 5 kts 95°
2026-05-03 21:14 40.68495 -74.18222 26 ft 7 kts 103°
2026-05-03 21:14 40.68469 -74.18149 25 ft 11 kts 125°
2026-05-03 21:15 40.68420 -74.18048 26 ft 15 kts 116°
2026-05-03 21:15 40.68370 -74.17899 24 ft 20 kts 118°
2026-05-03 21:15 40.68319 -74.17758 29 ft 7 kts 104°
2026-05-03 21:15 40.68289 -74.17665 26 ft 16 kts 89°
2026-05-03 21:16 40.68400 -74.17558 25 ft 25 kts 22°
2026-05-03 21:16 40.68577 -74.17447 25 ft 30 kts 26°
2026-05-03 21:16 40.68756 -74.17334 25 ft 25 kts 25°
2026-05-03 21:16 40.68923 -74.17228 25 ft 27 kts 25°
2026-05-03 21:17 40.69099 -74.17116 24 ft 29 kts 26°
2026-05-03 21:17 40.69216 -74.17041 24 ft 17 kts 25°
2026-05-03 21:17 40.69329 -74.16970 24 ft 19 kts 25°
2026-05-03 21:17 40.69450 -74.16895 26 ft 20 kts 25°
2026-05-03 21:18 40.69577 -74.16814 24 ft 21 kts 28°
2026-05-03 21:18 40.69715 -74.16723 24 ft 23 kts 25°
2026-05-03 21:18 40.69859 -74.16634 23 ft 20 kts 25°
2026-05-03 21:18 40.69947 -74.16573 24 ft 11 kts 29°
2026-05-03 21:19 40.69982 -74.16516 23 ft 1 kts 95°
2026-05-03 21:19 40.69982 -74.16511 23 ft 2 kts 92°
2026-05-03 21:19 40.69982 -74.16476 26 ft 6 kts 90°
2026-05-03 21:19 40.69964 -74.16416 21 ft 8 kts 155°
2026-05-03 21:20 40.69907 -74.16436 22 ft 11 kts 206°
2026-05-03 21:20 40.69597 -74.16637 26 ft 92 kts 206°
2026-05-03 21:20 40.68794 -74.17167 27 ft 164 kts 208°
2026-05-03 21:20 40.67582 -74.17828 199 ft 207 kts 201°
2026-05-03 21:21 40.66164 -74.18520 786 ft 226 kts 197°
2026-05-03 21:21 40.64585 -74.19165 1404 ft 242 kts 206°
2026-05-03 21:21 40.62993 -74.19913 2270 ft 247 kts 207°
2026-05-03 21:21 40.61343 -74.20756 2625 ft 264 kts 206°
2026-05-03 21:22 40.59718 -74.21734 3814 ft 244 kts 215°
2026-05-03 21:22 40.58400 -74.22886 5207 ft 217 kts 225°
2026-05-03 21:22 40.57250 -74.24204 5540 ft 227 kts 231°
2026-05-03 21:22 40.56107 -74.25754 4959 ft 245 kts 233°
2026-05-03 21:23 40.54871 -74.27416 4595 ft 262 kts 221°
2026-05-03 21:23 40.53108 -74.28191 5109 ft 276 kts 184°
2026-05-03 21:23 40.51242 -74.27479 5517 ft 287 kts 150°
2026-05-03 21:23 40.49555 -74.26021 5857 ft 293 kts 153°
2026-05-03 21:24 40.47779 -74.24773 5990 ft 294 kts 156°
2026-05-03 21:24 40.45933 -74.23620 6024 ft 294 kts 159°
2026-05-03 21:24 40.44046 -74.22545 6389 ft 294 kts 161°
2026-05-03 21:24 40.42156 -74.21530 6807 ft 297 kts 161°
2026-05-03 21:25 40.40230 -74.20532 7226 ft 298 kts 162°
2026-05-03 21:25 40.38290 -74.19545 7639 ft 300 kts 162°
2026-05-03 21:25 40.36337 -74.18565 8015 ft 303 kts 162°
2026-05-03 21:25 40.34359 -74.17579 8399 ft 305 kts 162°
2026-05-03 21:26 40.32364 -74.16591 8782 ft 307 kts 163°
2026-05-03 21:26 40.30299 -74.16046 9140 ft 301 kts 185°
2026-05-03 21:26 40.28199 -74.16090 9491 ft 304 kts 185°
2026-05-03 21:26 40.26079 -74.16118 9864 ft 305 kts 185°
2026-05-03 21:27 40.23947 -74.16156 10142 ft 309 kts 186°
2026-05-03 21:27 40.21750 -74.16199 10140 ft 323 kts 185°
2026-05-03 21:27 40.19469 -74.16247 10163 ft 332 kts 185°
2026-05-03 21:27 40.17142 -74.16295 10192 ft 340 kts 185°
2026-05-03 21:28 40.14750 -74.16314 10183 ft 349 kts 180°
2026-05-03 21:28 40.12371 -74.15525 10265 ft 358 kts 156°
2026-05-03 21:28 40.10347 -74.13626 10408 ft 362 kts 133°
2026-05-03 21:28 40.08968 -74.10903 10567 ft 361 kts 111°
2026-05-03 21:29 40.08232 -74.07776 10684 ft 361 kts 103°
2026-05-03 21:29 40.07572 -74.04601 10847 ft 362 kts 103°
2026-05-03 21:29 40.06921 -74.01422 10988 ft 364 kts 103°
2026-05-03 21:29 40.06272 -73.98228 11173 ft 365 kts 103°
2026-05-03 21:30 40.05624 -73.95030 11328 ft 366 kts 103°
2026-05-03 21:30 40.04972 -73.91817 11508 ft 367 kts 103°
2026-05-03 21:30 40.04319 -73.88601 11673 ft 368 kts 103°
2026-05-03 21:30 40.03663 -73.85372 11848 ft 369 kts 103°
2026-05-03 21:31 40.03011 -73.82169 12017 ft 370 kts 103°
2026-05-03 21:31 40.02340 -73.78876 12186 ft 372 kts 103°
2026-05-03 21:31 40.01681 -73.75652 12349 ft 373 kts 103°
2026-05-03 21:31 40.01010 -73.72370 12531 ft 374 kts 103°
2026-05-03 21:32 40.00337 -73.69086 12697 ft 376 kts 103°
2026-05-03 21:32 39.99662 -73.65794 12877 ft 377 kts 103°
2026-05-03 21:32 39.98982 -73.62486 13029 ft 379 kts 103°
2026-05-03 21:32 39.98299 -73.59166 13196 ft 380 kts 103°
2026-05-03 21:33 39.97615 -73.55848 13370 ft 381 kts 103°
2026-05-03 21:33 39.96924 -73.52504 13539 ft 383 kts 103°
2026-05-03 21:33 39.96229 -73.49143 13716 ft 384 kts 104°
2026-05-03 21:33 39.95534 -73.45784 13871 ft 385 kts 104°
2026-05-03 21:34 39.94833 -73.42407 14027 ft 386 kts 103°
2026-05-03 21:34 39.94130 -73.39021 14173 ft 387 kts 103°
2026-05-03 21:34 39.93425 -73.35633 14332 ft 388 kts 103°
2026-05-03 21:34 39.92715 -73.32229 14491 ft 389 kts 103°
2026-05-03 21:35 39.92004 -73.28823 14651 ft 391 kts 104°
2026-05-03 21:35 39.91292 -73.25417 14798 ft 392 kts 104°
2026-05-03 21:35 39.90574 -73.21993 14955 ft 393 kts 104°
2026-05-03 21:35 39.89851 -73.18547 15119 ft 394 kts 104°
2026-05-03 21:36 39.89128 -73.15105 15276 ft 395 kts 104°
2026-05-03 21:36 39.88400 -73.11649 15393 ft 397 kts 104°
2026-05-03 21:36 39.87665 -73.08161 15519 ft 399 kts 104°
2026-05-03 21:36 39.86928 -73.04673 15687 ft 400 kts 104°
2026-05-03 21:37 39.86188 -73.01174 15827 ft 402 kts 104°
2026-05-03 21:37 39.85445 -72.97666 15984 ft 403 kts 104°
2026-05-03 21:37 39.84702 -72.94163 16134 ft 404 kts 104°
2026-05-03 21:37 39.83953 -72.90634 16267 ft 405 kts 104°
2026-05-03 21:38 39.83201 -72.87097 16403 ft 406 kts 104°
2026-05-03 21:38 39.82436 -72.83565 16531 ft 407 kts 107°
2026-05-03 21:38 39.81498 -72.80133 16650 ft 408 kts 109°
2026-05-03 21:38 39.80544 -72.76654 16764 ft 409 kts 108°
2026-05-03 21:39 39.79600 -72.73166 16883 ft 410 kts 108°
2026-05-03 21:39 39.78656 -72.69664 16992 ft 411 kts 108°
2026-05-03 21:39 39.77709 -72.66146 17097 ft 412 kts 108°
2026-05-03 21:39 39.76767 -72.62651 17216 ft 412 kts 108°
2026-05-03 21:40 39.75816 -72.59127 17338 ft 413 kts 108°
2026-05-03 21:40 39.74866 -72.55611 17464 ft 413 kts 108°
2026-05-03 21:40 39.73911 -72.52080 17544 ft 414 kts 108°
2026-05-03 21:40 39.72953 -72.48543 17644 ft 414 kts 108°
2026-05-03 21:41 39.71995 -72.45011 17744 ft 415 kts 108°
2026-05-03 21:41 39.71032 -72.41479 17811 ft 416 kts 109°
2026-05-03 21:41 39.70059 -72.37941 17899 ft 416 kts 109°
2026-05-03 21:41 39.69084 -72.34392 17983 ft 417 kts 109°
2026-05-03 21:42 39.68114 -72.30869 18060 ft 418 kts 109°
2026-05-03 21:42 39.67135 -72.27313 18135 ft 418 kts 109°
2026-05-03 21:42 39.66154 -72.23758 18222 ft 418 kts 109°
2026-05-03 21:42 39.65075 -72.20312 18257 ft 419 kts 120°
2026-05-03 21:43 39.63339 -72.17308 18377 ft 415 kts 134°
2026-05-03 21:43 39.61410 -72.14507 18360 ft 418 kts 134°
2026-05-03 21:43 39.59459 -72.11719 18439 ft 417 kts 135°
2026-05-03 21:43 39.57498 -72.08952 18483 ft 418 kts 135°
2026-05-03 21:44 39.55519 -72.06182 18537 ft 418 kts 135°
2026-05-03 21:44 39.53548 -72.03430 18583 ft 419 kts 135°
2026-05-03 21:44 39.51568 -72.00673 18639 ft 419 kts 135°
2026-05-03 21:44 39.49581 -71.97907 18690 ft 419 kts 135°
2026-05-03 21:45 39.47593 -71.95144 18716 ft 420 kts 135°
2026-05-03 21:45 39.45597 -71.92371 18733 ft 421 kts 135°
2026-05-03 21:45 39.43597 -71.89597 18798 ft 421 kts 136°
2026-05-03 21:45 39.41599 -71.86826 18847 ft 422 kts 136°
2026-05-03 21:46 39.39599 -71.84055 18884 ft 422 kts 136°
2026-05-03 21:46 39.37599 -71.81287 18937 ft 423 kts 136°
2026-05-03 21:46 39.35589 -71.78509 18988 ft 423 kts 136°
2026-05-03 21:46 39.33571 -71.75721 19503 ft 424 kts 136°
2026-05-03 21:47 39.31553 -71.72937 20082 ft 428 kts 136°
2026-05-03 21:47 39.29507 -71.70115 20610 ft 431 kts 136°
2026-05-03 21:47 39.27446 -71.67276 21162 ft 435 kts 136°
2026-05-03 21:47 39.25368 -71.64415 21701 ft 438 kts 136°
2026-05-03 21:48 39.23278 -71.61541 22238 ft 441 kts 136°
2026-05-03 21:48 39.21175 -71.58651 22756 ft 445 kts 136°
2026-05-03 21:48 39.18944 -71.55888 23257 ft 445 kts 143°
2026-05-03 21:48 39.16595 -71.53275 23796 ft 446 kts 143°
2026-05-03 21:49 39.14282 -71.50582 24204 ft 450 kts 144°
2026-05-03 21:49 39.11888 -71.47997 24683 ft 449 kts 144°
2026-05-03 21:49 39.09581 -71.45255 25088 ft 454 kts 142°
2026-05-03 21:49 39.07257 -71.42478 25500 ft 456 kts 142°
2026-05-03 21:50 39.05037 -71.39864 25894 ft 458 kts 143°
2026-05-03 21:50 39.02680 -71.37118 26306 ft 460 kts 143°
2026-05-03 21:50 39.00296 -71.34354 26702 ft 463 kts 143°
2026-05-03 21:50 38.97928 -71.31613 27091 ft 465 kts 144°
2026-05-03 21:51 38.95522 -71.28833 27471 ft 467 kts 144°
2026-05-03 21:51 38.93098 -71.26032 27828 ft 470 kts 144°
2026-05-03 21:51 38.90656 -71.23216 28172 ft 473 kts 144°
2026-05-03 21:51 38.88203 -71.20388 28560 ft 475 kts 144°
2026-05-03 21:52 38.85737 -71.17549 28921 ft 477 kts 145°
2026-05-03 21:52 38.83268 -71.14708 29277 ft 480 kts 145°
2026-05-03 21:52 38.80774 -71.11843 29636 ft 482 kts 145°
2026-05-03 21:52 38.78274 -71.08972 29976 ft 484 kts 145°
2026-05-03 21:53 38.75759 -71.06087 30263 ft 487 kts 145°
2026-05-03 21:53 38.73231 -71.03190 30541 ft 488 kts 145°
2026-05-03 21:53 38.70689 -71.00280 30812 ft 491 kts 145°
2026-05-03 21:53 38.68138 -70.97363 31078 ft 493 kts 146°
2026-05-03 21:54 38.65573 -70.94433 31285 ft 495 kts 146°
2026-05-03 21:54 38.63004 -70.91501 31511 ft 498 kts 146°
2026-05-03 21:54 38.60414 -70.88549 31788 ft 500 kts 146°
2026-05-03 21:54 38.57817 -70.85591 32044 ft 501 kts 147°
2026-05-03 21:55 38.55210 -70.82624 32328 ft 502 kts 147°
2026-05-03 21:55 38.52593 -70.79649 32598 ft 504 kts 147°
2026-05-03 21:55 38.49977 -70.76679 32958 ft 503 kts 147°
2026-05-03 21:55 38.47394 -70.73749 33298 ft 503 kts 147°
2026-05-03 21:56 38.44758 -70.70762 33657 ft 502 kts 148°
2026-05-03 21:56 38.42183 -70.67846 33993 ft 501 kts 148°
2026-05-03 21:56 38.39575 -70.64896 34243 ft 501 kts 148°
2026-05-03 21:56 38.36964 -70.61946 34476 ft 502 kts 148°
2026-05-03 21:57 38.34351 -70.58997 34717 ft 502 kts 148°
2026-05-03 21:57 38.31740 -70.56052 34980 ft 502 kts 148°
2026-05-03 21:57 38.29126 -70.53109 35219 ft 501 kts 148°
2026-05-03 21:57 38.26524 -70.50179 35515 ft 500 kts 148°
2026-05-03 21:58 38.23916 -70.47248 35785 ft 500 kts 148°
2026-05-03 21:58 38.21312 -70.44322 36033 ft 499 kts 148°
2026-05-03 21:58 38.18709 -70.41401 36281 ft 499 kts 148°
2026-05-03 21:58 38.16109 -70.38485 36527 ft 499 kts 148°
2026-05-03 21:59 38.13552 -70.35479 36749 ft 505 kts 142°
2026-05-03 21:59 38.11142 -70.32226 36903 ft 506 kts 143°
2026-05-03 21:59 38.08745 -70.28971 37029 ft 507 kts 143°
2026-05-03 21:59 38.06341 -70.25693 37031 ft 508 kts 143°
2026-05-03 22:00 38.01540 -70.19152 37003 ft 506 kts 143°
2026-05-03 22:00 37.97549 -70.13722 37025 ft 506 kts 143°
2026-05-03 22:01 37.91979 -70.06161 37023 ft 506 kts 143°
2026-05-03 22:01 37.87174 -69.99653 37023 ft 506 kts 143°
2026-05-03 22:02 37.83144 -69.94205 37023 ft 506 kts 143°
2026-05-03 22:02 37.78326 -69.87703 37031 ft 507 kts 144°
2026-05-03 22:03 37.73556 -69.81280 37020 ft 504 kts 144°
2026-05-03 22:03 37.68753 -69.74825 37022 ft 504 kts 144°
2026-05-03 22:04 37.63950 -69.68383 37021 ft 504 kts 144°
2026-05-03 22:04 37.59141 -69.61947 37023 ft 504 kts 144°
2026-05-03 22:05 37.54342 -69.55537 37023 ft 504 kts 144°
2026-05-03 22:05 37.49532 -69.49124 37004 ft 504 kts 146°
2026-05-03 22:06 37.45106 -69.43236 37022 ft 504 kts 146°
2026-05-03 22:06 37.40297 -69.36848 37019 ft 504 kts 146°
2026-05-03 22:07 37.35475 -69.30458 37024 ft 503 kts 146°
2026-05-03 22:07 37.30654 -69.24081 37019 ft 503 kts 146°
2026-05-03 22:08 37.25827 -69.17709 36983 ft 503 kts 146°
2026-05-03 22:08 37.21003 -69.11354 36991 ft 504 kts 147°
2026-05-03 22:09 37.16161 -69.04988 37012 ft 504 kts 147°
2026-05-03 22:10 37.08929 -68.95502 37011 ft 504 kts 147°
2026-05-03 22:10 37.04092 -68.89174 37011 ft 504 kts 147°
2026-05-03 22:11 36.99239 -68.82837 36990 ft 504 kts 148°
2026-05-03 22:11 36.94388 -68.76515 37012 ft 504 kts 148°
2026-05-03 22:12 36.89526 -68.70191 37014 ft 506 kts 148°
2026-05-03 22:12 36.84645 -68.63855 37007 ft 506 kts 148°
2026-05-03 22:13 36.79761 -68.57527 37013 ft 506 kts 148°
2026-05-03 22:13 36.74870 -68.51203 36969 ft 506 kts 149°
2026-05-03 22:14 36.69984 -68.44896 37018 ft 507 kts 149°
2026-05-03 22:14 36.65088 -68.38588 37012 ft 506 kts 149°
2026-05-03 22:15 36.60185 -68.32283 36987 ft 507 kts 149°
2026-05-03 22:15 36.55068 -68.26467 37041 ft 487 kts 158°
2026-05-03 22:16 36.49737 -68.21228 37002 ft 489 kts 158°
2026-05-03 22:16 36.44400 -68.16017 36994 ft 488 kts 159°
2026-05-03 22:17 36.39059 -68.10814 37012 ft 488 kts 159°
2026-05-03 22:17 36.33764 -68.05664 37013 ft 487 kts 159°
2026-05-03 22:18 36.28429 -68.00485 37015 ft 487 kts 159°
2026-05-03 22:18 36.23085 -67.95306 37015 ft 487 kts 159°
2026-05-03 22:19 36.17745 -67.90140 37015 ft 487 kts 159°
2026-05-03 22:19 36.12408 -67.84987 37015 ft 487 kts 159°
2026-05-03 22:20 36.07064 -67.79836 37015 ft 487 kts 159°
2026-05-03 22:20 36.01722 -67.74696 37021 ft 487 kts 159°
2026-05-03 22:21 35.96374 -67.69558 37018 ft 487 kts 159°
2026-05-03 22:21 35.91034 -67.64439 37021 ft 487 kts 159°
2026-05-03 22:22 35.85683 -67.59317 37021 ft 487 kts 160°
2026-05-03 22:22 35.80333 -67.54205 36981 ft 487 kts 160°
2026-05-03 22:23 35.74997 -67.49116 37001 ft 486 kts 160°
2026-05-03 22:23 35.69655 -67.44029 37027 ft 486 kts 160°
2026-05-03 22:24 35.64310 -67.38949 37024 ft 486 kts 160°
2026-05-03 22:24 35.58965 -67.33878 37034 ft 486 kts 160°
2026-05-03 22:25 35.53654 -67.28847 37035 ft 486 kts 160°
2026-05-03 22:25 35.48308 -67.23792 36984 ft 485 kts 160°
2026-05-03 22:26 35.42966 -67.18749 37009 ft 484 kts 159°
2026-05-03 22:26 35.37634 -67.13725 37031 ft 483 kts 160°
2026-05-03 22:27 35.32313 -67.08719 37032 ft 483 kts 160°
2026-05-03 22:27 35.26979 -67.03711 37029 ft 483 kts 160°
2026-05-03 22:28 35.21645 -66.98710 37032 ft 483 kts 160°
2026-05-03 22:28 35.16318 -66.93724 37033 ft 482 kts 159°
2026-05-03 22:29 35.10996 -66.88752 36984 ft 482 kts 159°
2026-05-03 22:29 35.05671 -66.83785 37041 ft 481 kts 159°
2026-05-03 22:30 35.00361 -66.78839 37036 ft 480 kts 159°
2026-05-03 22:30 34.95055 -66.73904 37037 ft 480 kts 159°
2026-05-03 22:31 34.89777 -66.69003 36995 ft 479 kts 159°
2026-05-03 22:31 34.87107 -66.66630 37025 ft 468 kts 164°
2026-05-03 22:31 34.84372 -66.64487 37075 ft 468 kts 164°
2026-05-03 22:32 34.78887 -66.60107 37034 ft 468 kts 163°
2026-05-03 22:32 34.73501 -66.55773 37012 ft 469 kts 163°
2026-05-03 22:33 34.68060 -66.51398 37042 ft 469 kts 163°
2026-05-03 22:33 34.62618 -66.47029 36997 ft 469 kts 163°
2026-05-03 22:34 34.57181 -66.42671 37045 ft 469 kts 163°
2026-05-03 22:34 34.51747 -66.38323 37040 ft 468 kts 163°
2026-05-03 22:35 34.46308 -66.33977 37043 ft 468 kts 163°
2026-05-03 22:35 34.40866 -66.29635 37041 ft 468 kts 163°
2026-05-03 22:36 34.35431 -66.25307 37043 ft 468 kts 163°
2026-05-03 22:36 34.29982 -66.20974 37048 ft 471 kts 163°
2026-05-03 22:37 34.24498 -66.16620 37041 ft 471 kts 163°
2026-05-03 22:37 34.19019 -66.12275 36836 ft 470 kts 163°
2026-05-03 22:37 34.16294 -66.10125 36263 ft 467 kts 163°
2026-05-03 22:38 34.13598 -66.07999 35915 ft 459 kts 163°
2026-05-03 22:38 34.10965 -66.05923 35647 ft 450 kts 163°
2026-05-03 22:38 34.08374 -66.03884 35379 ft 443 kts 163°
2026-05-03 22:38 34.05767 -66.01840 35106 ft 451 kts 162°
2026-05-03 22:39 34.03114 -65.99756 34984 ft 458 kts 162°
2026-05-03 22:39 34.00423 -65.97640 34880 ft 464 kts 162°
2026-05-03 22:39 33.97713 -65.95511 34673 ft 465 kts 162°
2026-05-03 22:39 33.95019 -65.93397 34191 ft 461 kts 162°
2026-05-03 22:40 33.92328 -65.91289 33463 ft 463 kts 161°
2026-05-03 22:40 33.89640 -65.89183 32818 ft 462 kts 161°
2026-05-03 22:40 33.86954 -65.87081 32332 ft 457 kts 160°
2026-05-03 22:40 33.84307 -65.85011 31901 ft 452 kts 160°
2026-05-03 22:41 33.81681 -65.82959 31425 ft 448 kts 160°
2026-05-03 22:41 33.79075 -65.80925 30904 ft 446 kts 160°
2026-05-03 22:41 33.76483 -65.78903 30362 ft 443 kts 159°
2026-05-03 22:41 33.73902 -65.76891 29825 ft 441 kts 159°
2026-05-03 22:42 33.71339 -65.74895 29309 ft 437 kts 159°
2026-05-03 22:42 33.68811 -65.72927 28833 ft 432 kts 159°
2026-05-03 22:42 33.66333 -65.71000 28369 ft 428 kts 159°
2026-05-03 22:42 33.63843 -65.69064 27901 ft 424 kts 159°
2026-05-03 22:43 33.61378 -65.67149 27441 ft 420 kts 159°
2026-05-03 22:43 33.58934 -65.65252 26991 ft 417 kts 159°
2026-05-03 22:43 33.56508 -65.63370 26544 ft 413 kts 159°
2026-05-03 22:43 33.54104 -65.61506 26111 ft 410 kts 159°
2026-05-03 22:44 33.51715 -65.59656 25651 ft 407 kts 159°
2026-05-03 22:44 33.49357 -65.57830 25243 ft 403 kts 159°
2026-05-03 22:44 33.47008 -65.56013 24823 ft 401 kts 158°
2026-05-03 22:44 33.44678 -65.54211 24411 ft 398 kts 158°
2026-05-03 22:45 33.42359 -65.52419 24004 ft 395 kts 158°
2026-05-03 22:45 33.40051 -65.50637 23590 ft 393 kts 158°
2026-05-03 22:45 33.37763 -65.48872 23119 ft 390 kts 158°
2026-05-03 22:45 33.35491 -65.47120 22702 ft 386 kts 158°
2026-05-03 22:46 33.33243 -65.45387 22312 ft 382 kts 158°
2026-05-03 22:46 33.31018 -65.43673 21930 ft 379 kts 158°
2026-05-03 22:46 33.28823 -65.41983 21553 ft 375 kts 158°
2026-05-03 22:46 33.26639 -65.40303 21175 ft 372 kts 158°
2026-05-03 22:47 33.24484 -65.38645 20782 ft 362 kts 158°
2026-05-03 22:47 33.22397 -65.37041 20452 ft 354 kts 159°
2026-05-03 22:47 33.20326 -65.35452 20088 ft 352 kts 159°
2026-05-03 22:47 33.18274 -65.33877 19707 ft 350 kts 158°
2026-05-03 22:48 33.16258 -65.32331 19370 ft 348 kts 158°
2026-05-03 22:48 33.14231 -65.30777 19025 ft 346 kts 158°
2026-05-03 22:48 33.12208 -65.29226 18661 ft 345 kts 159°
2026-05-03 22:48 33.10199 -65.27687 18314 ft 343 kts 159°
2026-05-03 22:49 33.08189 -65.26149 17928 ft 341 kts 159°
2026-05-03 22:49 33.06224 -65.24569 17494 ft 349 kts 151°
2026-05-03 22:49 33.04493 -65.22467 17161 ft 355 kts 143°
2026-05-03 22:49 33.02809 -65.20321 16675 ft 356 kts 144°
2026-05-03 22:50 33.01103 -65.18154 16118 ft 358 kts 143°
2026-05-03 22:50 32.99402 -65.15988 15548 ft 358 kts 143°
2026-05-03 22:50 32.97705 -65.13827 15010 ft 357 kts 143°
2026-05-03 22:50 32.96016 -65.11678 14505 ft 355 kts 143°
2026-05-03 22:51 32.94335 -65.09539 14013 ft 352 kts 143°
2026-05-03 22:51 32.92695 -65.07450 13891 ft 337 kts 144°
2026-05-03 22:51 32.91143 -65.05471 13840 ft 319 kts 144°
2026-05-03 22:51 32.90153 -65.04215 13737 ft 320 kts 145°
2026-05-03 22:52 32.88598 -65.02253 13004 ft 330 kts 144°
2026-05-03 22:52 32.87017 -65.00248 12326 ft 335 kts 143°
2026-05-03 22:52 32.85414 -64.98213 11670 ft 338 kts 143°
2026-05-03 22:52 32.83805 -64.96172 10990 ft 337 kts 142°
2026-05-03 22:53 32.82206 -64.94146 10379 ft 335 kts 142°
2026-05-03 22:53 32.80613 -64.92129 9740 ft 333 kts 142°
2026-05-03 22:53 32.79032 -64.90128 9077 ft 331 kts 141°
2026-05-03 22:53 32.77460 -64.88140 8413 ft 330 kts 141°
2026-05-03 22:54 32.75893 -64.86160 7775 ft 328 kts 141°
2026-05-03 22:54 32.74332 -64.84189 7138 ft 327 kts 140°
2026-05-03 22:54 32.72782 -64.82231 6528 ft 326 kts 140°
2026-05-03 22:54 32.71271 -64.80323 6395 ft 306 kts 140°
2026-05-03 22:55 32.69862 -64.78543 6396 ft 288 kts 141°
2026-05-03 22:55 32.68516 -64.76849 6353 ft 276 kts 141°
2026-05-03 22:55 32.67220 -64.75218 6287 ft 267 kts 141°
2026-05-03 22:55 32.65934 -64.73602 6242 ft 276 kts 141°
2026-05-03 22:56 32.64600 -64.71923 6184 ft 283 kts 141°
2026-05-03 22:56 32.63236 -64.70206 6132 ft 286 kts 140°
2026-05-03 22:56 32.61872 -64.68491 6078 ft 286 kts 140°
2026-05-03 22:56 32.60505 -64.66773 6020 ft 286 kts 140°
2026-05-03 22:57 32.59150 -64.65070 5965 ft 280 kts 141°
2026-05-03 22:57 32.57841 -64.63425 5897 ft 269 kts 141°
2026-05-03 22:57 32.56571 -64.61832 5835 ft 267 kts 141°
2026-05-03 22:57 32.55269 -64.60200 5786 ft 278 kts 140°
2026-05-03 22:58 32.53926 -64.58515 5738 ft 284 kts 140°
2026-05-03 22:58 32.52568 -64.56811 5683 ft 285 kts 140°
2026-05-03 22:58 32.51208 -64.55107 5625 ft 284 kts 140°
2026-05-03 22:58 32.49852 -64.53406 5467 ft 283 kts 139°
2026-05-03 22:59 32.48507 -64.51683 5178 ft 286 kts 138°
2026-05-03 22:59 32.47195 -64.49932 4956 ft 281 kts 138°
2026-05-03 22:59 32.45914 -64.48221 4809 ft 274 kts 137°
2026-05-03 22:59 32.44672 -64.46564 4690 ft 265 kts 137°
2026-05-03 23:00 32.43425 -64.45009 4503 ft 255 kts 149°
2026-05-03 23:00 32.41883 -64.44237 4169 ft 238 kts 182°
2026-05-03 23:00 32.40269 -64.44398 3901 ft 226 kts 197°
2026-05-03 23:00 32.38731 -64.44729 3679 ft 223 kts 198°
2026-05-03 23:01 32.37206 -64.45077 3400 ft 223 kts 199°
2026-05-03 23:01 32.35712 -64.45433 3129 ft 221 kts 200°
2026-05-03 23:01 32.34368 -64.46160 2833 ft 210 kts 228°
2026-05-03 23:01 32.33613 -64.47517 2716 ft 188 kts 257°
2026-05-03 23:02 32.33495 -64.48959 2637 ft 169 kts 277°
2026-05-03 23:02 32.33623 -64.50290 2527 ft 158 kts 279°
2026-05-03 23:02 32.33775 -64.51571 2343 ft 156 kts 280°
2026-05-03 23:02 32.33907 -64.52852 2223 ft 158 kts 279°
2026-05-03 23:03 32.34066 -64.54142 1945 ft 159 kts 282°
2026-05-03 23:03 32.34276 -64.55415 1642 ft 152 kts 282°
2026-05-03 23:03 32.34480 -64.56598 1419 ft 144 kts 284°
2026-05-03 23:03 32.34670 -64.57749 1179 ft 142 kts 283°
2026-05-03 23:04 32.34834 -64.58888 962 ft 140 kts 284°
2026-05-03 23:04 32.35017 -64.60008 873 ft 139 kts 285°
2026-05-03 23:04 32.35210 -64.61122 801 ft 140 kts 284°
2026-05-03 23:04 32.35407 -64.62308 697 ft 147 kts 285°
2026-05-03 23:05 32.35637 -64.63460 528 ft 139 kts 284°
2026-05-03 23:05 32.35846 -64.64530 356 ft 130 kts 280°
2026-05-03 23:05 32.36016 -64.65557 171 ft 126 kts 279°
2026-05-03 23:05 32.36185 -64.66583 41 ft 122 kts 282°
2026-05-03 23:06 32.36334 -64.67461 27 ft 93 kts 281°
2026-05-03 23:06 32.36441 -64.68087 30 ft 68 kts 281°
2026-05-03 23:06 32.36527 -64.68588 30 ft 58 kts 281°
2026-05-03 23:06 32.36603 -64.69036 28 ft 41 kts 280°
2026-05-03 23:07 32.36535 -64.69272 27 ft 18 kts 182°
2026-05-03 23:07 32.36519 -64.69275 26 ft 0 kts 226°
2026-05-03 23:07 32.36517 -64.69285 26 ft 6 kts 259°
2026-05-03 23:07 32.36513 -64.69455 28 ft 31 kts 255°
2026-05-03 23:08 32.36421 -64.69723 27 ft 38 kts 248°
2026-05-03 23:08 32.36316 -64.70016 27 ft 37 kts 248°
2026-05-03 23:08 32.36296 -64.70226 27 ft 18 kts 296°
2026-05-03 23:08 32.36293 -64.70297 27 ft 7 kts 246°
2026-05-03 23:09 32.36285 -64.70320 27 ft 3 kts 250°
2026-05-03 23:09 32.36283 -64.70327 27 ft 0 kts 250°